Simultaneous Nadir Overpasses (SNOs) Predictions

Prediction of SNOs between FY3D and TERRA Satellite Orbit:

Table of predicted SNOs for the next 14.0 days since TLE Epoch: 6/16/2022
Index Date (FY3D) Time (FY3D) Lat,Lon (FY3D) SZA (FY3D ) Date (TERRA) Time (TERRA) Lat,Lon (TERRA) SZA (TERRA ) Distance(km) Time Diff (sec)
1 06/16/2022 13:20:29 -71.58, 159.64 131.88 06/16/2022 13:21:07 -71.56, 159.66 131.90 2.49 38
2 06/16/2022 14:11:13 71.44, -32.80 47.98 06/16/2022 14:10:34 71.46, -32.85 48.00 3.31 39
3 06/19/2022 04:47:34 71.54, 107.97 48.02 06/19/2022 04:48:04 71.54, 107.88 48.02 3.17 30
4 06/19/2022 05:38:17 -71.46, -84.57 132.07 06/19/2022 05:37:33 -71.48, -84.60 132.05 1.95 44
5 06/21/2022 20:14:38 -71.57, 56.18 131.97 06/21/2022 20:15:02 -71.59, 56.19 131.95 2.87 24
6 06/21/2022 21:05:23 71.47,-136.35 47.94 06/21/2022 21:04:29 71.49,-136.33 47.95 1.89 54
7 06/24/2022 10:51:13 -72.39,-164.45 131.10 06/24/2022 10:52:20 -72.28,-162.02 131.23 82.97 67
8 06/24/2022 11:41:44 71.58, 4.40 48.08 06/24/2022 11:41:58 71.59, 4.43 48.08 0.97 14
9 06/24/2022 12:32:26 -71.45, 171.95 132.05 06/24/2022 12:31:28 -71.47, 171.87 132.03 3.39 58
10 06/27/2022 02:18:12 72.06, 144.46 48.64 06/27/2022 02:19:22 71.94, 145.62 48.51 41.87 70
11 06/27/2022 03:08:46 -71.57, -47.31 131.86 06/27/2022 03:08:56 -71.55, -47.39 131.87 3.27 10
12 06/27/2022 03:59:31 71.47, 120.17 48.05 06/27/2022 03:58:22 71.50, 120.16 48.08 3.09 69
13 06/29/2022 17:45:10 -71.84, 93.13 131.45 06/29/2022 17:46:22 -71.78, 93.59 131.52 17.13 72
14 06/29/2022 18:35:52 71.59, -99.10 48.30 06/29/2022 18:35:51 71.56, -99.13 48.27 3.33 1
15 06/29/2022 19:26:34 -71.46, 68.45 131.83 06/29/2022 19:25:21 -71.45, 68.32 131.84 4.60 73



Historial Predications of SNOs between FY3D and TERRA
